Tracking 31027 objects as of 19-Jul-2025
HD Live streaming from Space Station
objects crossing your sky now

STARLINK-3291

Track STARLINK-3291 now!
10-day predictions
STARLINK-3291 is classified as:


NORAD ID: 50175
Int'l Code: 2021-125V
Perigee: 546.1 km
Apogee: 547.6 km
Inclination: 53.2 °
Period: 95.4 minutes
Semi major axis: 6917 km
RCS: Unknown
Launch date: December 18, 2021
Source: United States (US)
Launch site: AIR FORCE WESTERN TEST RANGE (AFWTR)
Your satellite tracking list
ST5-A
Track 1 satellite(s)




NASA's NSSDC Master Catalog

Two Line Element Set (TLE):
1 50175U 21125V   25199.34903788 -.00000450  00000-0 -10164-4 0  9994
2 50175  53.2160 221.1198 0001070  67.6304 292.4801 15.08844302201223
Source of the keplerian elements: AFSPC